Location: Namasale
(1.5000°N, 32.6167°E)
Time: 18:47:14
(UTC+00:00)

Courier 1B - Pass Details

Date: 25 April 2021
Orbit: 962 x 1209 km, 28.3° (Epoch: 09 May)

Event Time Altitude Azimuth Distance (km) Brightness Sun altitude
Rises 16:50:33 0° 289° (WNW) 3,648 12.4 -15.0°
Reaches altitude 10° 16:53:14 10° 283° (WNW) 2,719 11.2 -15.6°
Maximum altitude 16:59:33 49° 210° (SSW) 1,277 8.2 -17.1°
Enters shadow 17:04:14 20° 143° (SE) 2,216 8.9 -18.3°
Drops below altitude 10° 17:06:14 10° 136° (SE) 2,865 - -18.8°
Sets 17:09:09 0° 131° (SE) 3,860 - -19.5°
